Location: Unspecified
(0.0000°N, 0.0000°E)
Time: 12:26:57
(UTC+02:00)

Haruka - Visible Passes

Search period start: 30 May 2015 00:00
Search period end: 09 June 2015 00:00
Orbit: 546 x 21225 km, 31.3° (Epoch: 28 May)

Date Brightness Start Highest point End Pass type
(mag) Time Alt. Az. Time Alt. Az. Time Alt. Az.
30 May 8.2 04:33:00 39° SSW 05:39:23 64° SE 09:25:44 10° NE visible
30 May 5.8 22:42:29 10° SW 22:43:14 13° SW 22:43:14 13° SW visible
31 May 8.3 05:38:24 28° SW 08:39:07 85° NW 10:37:56 10° NE visible
01 Jun 8.8 00:27:26 11° SE 00:27:26 11° SE 00:29:31 10° SE visible
01 Jun 8.5 06:43:48 14° SW 10:52:56 60° NW 11:48:20 10° NE visible
02 Jun 8.5 01:32:50 26° SE 01:32:50 26° SE 05:31:08 10° ENE visible
03 Jun 8.3 02:38:14 39° SSE 02:38:14 39° SSE 07:08:01 10° ENE visible
03 Jun 3.8 20:39:23 10° W 20:42:28 32° SSW 20:47:30 10° SE visible
04 Jun 8.2 03:43:39 45° S 04:12:17 55° SSE 08:27:41 10° NE visible
04 Jun 5.3 21:48:51 10° SW 21:52:15 18° S 21:52:42 18° S visible
05 Jun 8.2 04:49:05 40° SSW 06:26:16 78° SE 09:41:46 10° NE visible
05 Jun6.323:38:08ESE23:38:08ESE22:57:50SWvisible
06 Jun 8.4 05:54:30 27° SW 09:24:23 70° NW 10:53:15 10° NE visible
07 Jun 8.8 00:43:33 17° SE 00:43:33 17° SE 03:31:36 10° E visible
07 Jun 8.5 06:59:56 12° WSW 11:20:39 50° NNW 12:03:23 10° NE visible
08 Jun 8.5 01:49:00 32° SE 01:49:00 32° SE 06:01:09 10° ENE visible
